1521961200.14,52246,9.63,72462.0,-3.47,-37.57,-37.99,0,*55
1521961201.39,52247,9.63,72464.5,-3.47,-37.75,-37.99,0,*54
1521961202.65,52248,9.63,72462.3,-3.45,-37.81,-38.11,0,*5D
1521961203.93,52249,9.69,72464.3,-3.47,-37.39,-37.81,0,*5B
1521961205.19,52250,9.63,72464.3,-3.47,-37.09,-37.57,0,*5B
1521961206.44,52251,9.69,72466.0,-3.47,-37.09,-37.57,0,*5A
1521961207.7,52252,9.69,72466.0,-3.45,-37.39,-37.93,0,*50
1521961208.92,52253,9.63,72462.5,-3.45,-37.33,-37.69,0,*5E
1521961210.15,52254,9.63,72462.3,-3.43,-37.15,-37.57,0,*56
1521961211.38,52255,9.63,72462.3,-3.45,-37.45,-37.81,0,*5F
1521961212.65,52256,9.69,72464.5,-3.43,-37.39,-37.87,0,*57
1521961213.9,52257,9.63,72462.8,-3.43,-37.03,-37.39,0,*5A
1521961215.16,52258,9.63,72462.5,-3.43,-36.79,-37.15,0,*57
1521961216.37,52259,9.63,72460.5,-3.39,-36.73,-37.15,0,*51
1521961217.6,52260,9.69,72464.5,-3.39,-36.91,-37.33,0,*53
1521961218.84,52261,9.63,72462.8,-3.39,-37.15,-37.51,0,*5B
1521961220.1,52262,9.69,72462.5,-3.39,-37.09,-37.51,0,*55
1521961221.36,52263,9.63,72462.3,-3.37,-37.33,-37.69,0,*58
1521961222.57,52264,9.69,72468.0,-3.39,-37.33,-37.87,0,*51
1521961223.79,52265,9.63,72464.3,-3.39,-37.69,-38.05,0,*5A
1521961225.05,52266,9.69,72464.0,-3.39,-37.69,-38.29,0,*57
1521961226.31,52267,9.69,72464.3,-3.43,-37.69,-38.05,0,*55
1521961227.57,52268,9.63,72462.3,-3.37,-37.63,-38.05,0,*53
1521961228.79,52269,9.63,72462.8,-3.43,-37.57,-38.05,0,*56
1521961230.07,52270,9.69,72464.0,-3.43,-37.39,-37.93,0,*56
1521961231.35,52271,9.69,72466.3,-3.43,-37.51,-37.93,0,*59
1521961232.61,52272,9.69,72466.3,-3.43,-37.51,-37.87,0,*5F
1521961233.89,52273,9.63,72460.5,-3.43,-37.69,-37.93,0,*50
1521961235.14,52274,9.69,72462.0,-3.43,-37.75,-38.11,0,*5F
1521961236.4,52275,9.69,72464.3,-3.43,-38.05,-38.49,0,*5B
1521961237.63,52276,9.63,72464.0,-3.43,-37.75,-38.17,0,*5B
1521961238.9,52277,9.69,72464.0,-3.43,-37.87,-38.29,0,*5A
1521961240.14,52278,9.69,72464.0,-3.43,-37.87,-38.35,0,*58
1521961241.4,52279,9.63,72462.8,-3.45,-37.93,-38.23,0,*5D
1521961242.65,52280,9.69,72464.0,-3.43,-37.69,-38.05,0,*5C
1521961243.9,52281,9.69,72466.3,-3.43,-37.51,-38.05,0,*56
1521961245.15,52282,9.69,72464.3,-3.43,-37.51,-38.05,0,*55
1521961246.4,52283,9.69,72460.5,-3.43,-37.51,-38.05,0,*54
1521961247.63,52284,9.69,72460.5,-3.45,-37.45,-37.93,0,*50
1521961248.91,52285,9.69,72464.3,-3.43,-38.11,-38.67,0,*5D
1521961250.14,52286,9.63,72464.3,-3.45,-38.11,-38.43,0,*5E
1521961251.39,52287,9.69,72462.8,-3.43,-37.69,-38.17,0,*58
1521961252.65,52288,9.69,72466.8,-3.43,-37.57,-38.11,0,*5C
1521961253.91,52289,9.63,72460.5,-3.43,-37.39,-37.87,0,*55
1521961255.16,52290,9.69,72464.5,-3.43,-37.33,-37.69,0,*57
1521961256.39,52291,9.69,72462.3,-3.45,-37.81,-38.17,0,*5F
1521961257.65,52292,9.69,72460.8,-3.43,-37.33,-37.69,0,*55
1521961258.88,52293,9.69,72466.0,-3.43,-37.33,-37.75,0,*59
1521961260.13,52294,9.69,72464.0,-3.43,-37.15,-37.51,0,*5C
1521961261.39,52295,9.69,72466.0,-3.39,-37.51,-37.99,0,*54
1521961262.65,52296,9.69,72462.8,-3.43,-37.57,-37.93,0,*56
1521961263.93,52297,9.69,72464.8,-3.43,-37.39,-37.93,0,*5F
1521961265.2,52298,9.63,72460.8,-3.43,-37.21,-37.87,0,*5C
1521961266.48,52299,9.69,72462.0,-3.43,-37.51,-37.93,0,*5F
1521961267.76,52300,9.69,72466.0,-3.43,-37.51,-37.93,0,*5E
1521961269.01,52301,9.69,72464.8,-3.43,-37.69,-38.05,0,*54
1521961270.24,52302,9.69,72466.8,-3.43,-37.57,-38.05,0,*5A
1521961271.49,52303,9.69,72464.5,-3.43,-37.39,-37.75,0,*5B
1521961272.75,52304,9.69,72466.5,-3.43,-37.15,-37.51,0,*54
1521961274.01,52305,9.63,72458.5,-3.43,-36.97,-37.51,0,*5E
1521961275.25,52306,9.69,72462.5,-3.43,-36.97,-37.33,0,*59
1521961276.48,52307,9.69,72460.5,-3.39,-36.67,-37.09,0,*53
1521961277.75,52308,9.69,72460.5,-3.37,-37.27,-37.81,0,*57
1521961278.95,52309,9.69,72462.8,-3.39,-37.45,-37.87,0,*5A
1521961280.16,52310,9.69,72464.5,-3.39,-37.33,-37.87,0,*53
1521961281.45,52311,9.69,72464.3,-3.37,-37.63,-37.99,0,*56
1521961282.74,52312,9.69,72460.0,-3.37,-37.69,-37.99,0,*5F
1521961284.03,52313,9.69,72462.5,-3.37,-37.69,-38.11,0,*51
1521961285.29,52314,9.69,72460.8,-3.37,-38.49,-38.97,0,*55
1521961286.53,52315,9.69,72462.8,-3.39,-38.49,-38.85,0,*59
1521961287.76,52316,9.69,72460.5,-3.39,-38.05,-38.29,0,*54
1521961289.0,52317,9.69,72464.0,-3.39,-37.81,-38.05,0,*58
1521961290.23,52318,9.69,72466.8,-3.39,-37.63,-38.05,0,*5B
1521961291.48,52319,9.69,72462.0,-3.43,-37.69,-38.05,0,*5D
1521961292.73,52320,9.69,72462.8,-3.39,-37.63,-38.11,0,*55
1521961294.0,52321,9.69,72464.3,-3.39,-37.51,-37.99,0,*5A
1521961295.23,52322,9.69,72466.3,-3.39,-37.15,-37.63,0,*5C
1521961296.5,52323,9.69,72460.8,-3.39,-37.09,-37.63,0,*50
1521961297.73,52324,9.69,72462.5,-3.39,-36.91,-37.33,0,*52
1521961298.96,52325,9.69,72466.0,-3.39,-36.79,-37.15,0,*51
1521961300.19,52326,9.69,72460.8,-3.39,-36.91,-37.15,0,*54
1521961301.43,52327,9.69,72462.0,-3.39,-36.91,-37.33,0,*51
1521961302.72,52328,9.69,72462.0,-3.37,-37.69,-37.99,0,*56
1521961303.97,52329,9.69,72462.0,-3.37,-37.69,-38.05,0,*5D
1521961305.24,52330,9.69,72464.3,-3.37,-37.51,-37.87,0,*5B
1521961306.47,52331,9.69,72464.8,-3.39,-37.45,-37.99,0,*5E
1521961307.74,52332,9.69,72466.0,-3.39,-37.81,-38.23,0,*5B
1521961309.01,52333,9.69,72460.3,-3.39,-37.81,-38.23,0,*5A
1521961310.24,52334,9.69,72464.5,-3.39,-37.51,-37.87,0,*51
1521961311.48,52335,9.69,72464.3,-3.39,-38.05,-38.49,0,*53
1521961312.7,52336,9.69,72466.5,-3.39,-37.63,-38.05,0,*57
1521961313.93,52337,9.69,72460.5,-3.39,-37.63,-38.05,0,*56
1521961315.19,52338,9.69,72462.3,-3.39,-37.51,-37.99,0,*52
1521961316.43,52339,9.69,72462.0,-3.39,-37.99,-38.43,0,*5F
1521961317.67,52340,9.69,72462.0,-3.39,-37.87,-38.29,0,*52
1521961318.93,52341,9.69,72464.8,-3.39,-37.99,-38.29,0,*5C
1521961320.16,52342,9.69,72462.5,-3.43,-37.57,-38.05,0,*5E
1521961321.39,52343,9.69,72462.5,-3.37,-36.97,-37.33,0,*5B
1521961322.66,52344,9.69,72464.0,-3.37,-37.45,-37.81,0,*5B
1521961323.87,52345,9.69,72466.8,-3.39,-37.33,-37.87,0,*53
1521961325.13,52346,9.69,72464.3,-3.37,-37.45,-37.81,0,*59
1521961326.36,52347,9.69,72464.8,-3.39,-37.33,-37.81,0,*57
1521961327.57,52348,9.69,72464.5,-3.39,-37.87,-38.43,0,*56
1521961328.84,52349,9.69,72464.0,-3.39,-37.81,-38.23,0,*57
1521961330.11,52350,9.69,72464.5,-3.39,-37.81,-38.23,0,*5F
1521961331.38,52351,9.69,72462.8,-3.43,-37.87,-38.29,0,*5F
1521961332.66,52352,9.69,72464.0,-3.43,-38.11,-38.49,0,*5A
1521961333.89,52353,9.69,72464.8,-3.43,-37.87,-38.17,0,*50
1521961335.13,52354,9.69,72466.8,-3.43,-37.87,-38.17,0,*57
1521961336.35,52355,9.69,72468.3,-3.39,-37.27,-37.69,0,*57
1521961337.59,52356,9.69,72464.8,-3.39,-37.27,-37.81,0,*52
1521961338.83,52357,9.69,72464.3,-3.39,-37.27,-37.63,0,*5F
1521961340.04,52358,9.69,72466.8,-3.39,-37.33,-37.87,0,*5F
1521961341.27,52359,9.69,72464.3,-3.39,-37.45,-37.81,0,*59
1521961342.48,52360,9.69,72464.8,-3.39,-37.45,-37.87,0,*55
1521961343.71,52361,9.69,72460.0,-3.39,-37.27,-37.69,0,*50
1521961344.91,52362,9.69,72462.8,-3.39,-36.97,-37.45,0,*57
1521961346.15,52363,9.69,72460.5,-3.39,-37.15,-37.51,0,*58
1521961347.38,52364,9.69,72466.3,-3.39,-37.33,-37.81,0,*56
1521961348.64,52365,9.69,72468.0,-3.39,-37.81,-38.11,0,*58
1521961349.89,52366,9.69,72464.0,-3.39,-37.69,-38.11,0,*5D
1521961351.16,52367,9.69,72466.3,-3.39,-37.69,-37.99,0,*53
1521961352.42,52368,9.69,72464.8,-3.37,-37.27,-37.81,0,*51
1521961353.71,52369,9.69,72466.5,-3.37,-37.51,-37.99,0,*58
1521961354.94,52370,9.69,72466.5,-3.39,-37.33,-37.81,0,*53
1521961356.18,52371,9.69,72466.8,-3.39,-37.33,-37.81,0,*52
1521961357.4,52372,9.69,72466.8,-3.39,-37.69,-38.05,0,*5D
1521961358.64,52373,9.69,72466.5,-3.39,-37.45,-37.99,0,*58
1521961359.93,52374,9.69,72464.5,-3.37,-37.63,-37.99,0,*55
1521961361.19,52375,9.69,72466.8,-3.37,-37.27,-37.69,0,*5B
1521961362.42,52376,9.69,72462.8,-3.39,-37.15,-37.63,0,*5D
1521961363.63,52377,9.69,72464.0,-3.39,-36.97,-37.45,0,*53
1521961364.86,52378,9.69,72468.0,-3.39,-36.79,-37.33,0,*5D
1521961366.12,52379,9.69,72466.5,-3.37,-36.91,-37.33,0,*54
1521961367.36,52380,9.69,72464.5,-3.37,-36.73,-37.15,0,*5A
1521961368.62,52381,9.69,72466.5,-3.37,-36.91,-37.33,0,*53
1521961369.85,52382,9.69,72466.0,-3.39,-37.15,-37.69,0,*5C
1521961371.09,52383,9.69,72466.5,-3.35,-37.27,-37.63,0,*5A
1521961372.38,52384,9.69,72464.5,-3.37,-37.51,-37.99,0,*5B
1521961373.67,52385,9.69,72464.0,-3.37,-37.81,-38.11,0,*58
1521961374.94,52386,9.69,72464.5,-3.37,-37.27,-37.63,0,*5D
1521961376.2,52387,9.69,72466.8,-3.37,-36.91,-37.33,0,*55
1521961377.46,52388,9.69,72466.5,-3.37,-37.27,-37.69,0,*59
1521961378.7,52389,9.69,72464.5,-3.35,-37.03,-37.39,0,*59
1521961379.97,52390,9.69,72468.3,-3.35,-37.21,-37.63,0,*5E
1521961381.18,52391,9.69,72466.5,-3.35,-37.27,-37.75,0,*5E
1521961382.42,52392,9.69,72470.3,-3.33,-37.03,-37.45,0,*5E
1521961383.69,52393,9.69,72470.0,-3.35,-37.09,-37.63,0,*57
1521961384.96,52394,9.69,72468.3,-3.35,-37.21,-37.63,0,*5A
1521961386.2,52395,9.69,72466.8,-3.35,-37.39,-37.75,0,*55
1521961387.44,52396,9.69,72468.0,-3.35,-37.09,-37.57,0,*55
1521961388.68,52397,9.69,72464.8,-3.35,-37.27,-37.81,0,*53
1521961389.92,52398,9.69,72464.0,-3.35,-36.91,-37.27,0,*5C
1521961391.15,52399,9.69,72466.5,-3.33,-37.03,-37.27,0,*51
1521961392.44,52400,9.69,72466.5,-3.33,-37.39,-37.93,0,*50
1521961393.65,52401,9.69,72466.0,-3.35,-37.75,-38.17,0,*5C
1521961394.89,52402,9.69,72462.0,-3.35,-37.99,-38.43,0,*5C
1521961396.12,52403,9.69,72464.0,-3.37,-38.05,-38.61,0,*55
1521961397.36,52404,9.69,72460.8,-3.35,-37.93,-38.43,0,*50
1521961398.57,52405,9.69,72466.5,-3.35,-38.17,-38.73,0,*51
1521961399.81,52406,9.69,72462.3,-3.35,-37.99,-38.55,0,*5F
1521961401.03,52407,9.69,72466.3,-3.35,-38.05,-38.55,0,*54
1521961402.26,52408,9.69,72466.5,-3.35,-38.35,-38.91,0,*50
1521961403.5,52409,9.69,72464.5,-3.35,-37.99,-38.43,0,*57
1521961404.74,52410,9.69,72470.5,-3.39,-37.99,-38.43,0,*53
1521961406.0,52411,9.69,72466.8,-3.37,-37.69,-38.05,0,*51
1521961407.26,52412,9.69,72468.8,-3.39,-37.81,-38.29,0,*54
1521961408.53,52413,9.69,72468.5,-3.39,-37.81,-38.23,0,*5F
1521961409.77,52414,9.69,72468.3,-3.39,-37.99,-38.61,0,*57
1521961411.03,52415,9.69,72470.3,-3.39,-37.81,-38.29,0,*53
1521961412.26,52416,9.69,72464.8,-3.39,-37.27,-37.69,0,*57
1521961413.46,52417,9.69,72466.3,-3.39,-37.15,-37.45,0,*59
1521961414.7,52418,9.69,72466.0,-3.37,-36.97,-37.33,0,*52
1521961415.96,52419,9.69,72464.0,-3.37,-37.09,-37.45,0,*54
1521961417.22,52420,9.69,72462.3,-3.37,-37.27,-37.81,0,*5A
1521961418.5,52421,9.69,72466.5,-3.35,-37.21,-37.63,0,*53
1521961419.76,52422,9.69,72464.3,-3.39,-37.09,-37.51,0,*57
1521961421.02,52423,9.69,72466.3,-3.37,-36.79,-37.15,0,*5E
1521961422.26,52424,9.69,72468.5,-3.35,-37.09,-37.57,0,*5B
1521961423.5,52425,9.69,72464.3,-3.35,-37.21,-37.75,0,*50
1521961424.74,52426,9.69,72466.0,-3.35,-37.45,-37.81,0,*5A
1521961426.04,52427,9.69,72466.8,-3.37,-37.81,-38.23,0,*56
1521961427.31,52428,9.69,72470.3,-3.37,-37.27,-37.81,0,*52
1521961428.54,52429,9.69,72468.8,-3.39,-37.27,-37.81,0,*5D
1521961429.78,52430,9.69,72466.3,-3.35,-37.09,-37.57,0,*5E
1521961431.05,52431,9.69,72468.0,-3.37,-37.15,-37.81,0,*5B
1521961432.29,52432,9.69,72466.5,-3.35,-37.21,-37.57,0,*56
1521961433.5,52433,9.69,72468.0,-3.35,-36.67,-37.03,0,*55
1521961434.71,52434,9.69,72468.8,-3.35,-37.03,-37.45,0,*53
1521961435.98,52435,9.69,72468.8,-3.33,-37.27,-37.81,0,*5A
1521961437.21,52436,9.75,72468.0,-3.35,-37.93,-38.05,0,*53
1521961438.48,52437,9.69,72466.5,-3.35,-37.63,-37.99,0,*57
1521961439.74,52438,9.75,72468.3,-3.33,-37.09,-37.45,0,*53
1521961440.97,52439,9.69,72466.3,-3.33,-36.67,-37.03,0,*59
1521961442.24,52440,9.69,72466.0,-3.33,-37.03,-37.39,0,*5D
1521961443.51,52441,9.69,72468.3,-3.33,-37.21,-37.75,0,*54
1521961444.75,52442,9.75,72466.0,-3.35,-36.67,-37.21,0,*53
1521961446.01,52443,9.75,72466.5,-3.33,-36.73,-37.09,0,*5B
1521961447.3,52444,9.69,72464.8,-3.33,-36.91,-37.39,0,*53
1521961448.57,52445,9.69,72468.8,-3.33,-37.21,-37.75,0,*50
1521961449.81,52446,9.75,72468.3,-3.29,-37.03,-37.57,0,*58
1521961451.06,52447,9.75,72468.3,-3.29,-36.61,-36.97,0,*51
1521961452.32,52448,9.69,72466.0,-3.29,-36.79,-37.15,0,*5C
1521961453.55,52449,9.75,72468.3,-3.27,-36.79,-37.33,0,*57
1521961454.78,52450,9.75,72466.3,-3.29,-37.15,-37.57,0,*58
1521961456.05,52451,9.75,72470.3,-3.29,-36.85,-37.39,0,*59
1521961457.31,52452,9.75,72468.5,-3.29,-37.57,-37.99,0,*5E
1521961458.54,52453,9.75,72468.0,-3.27,-37.39,-37.87,0,*56
1521961459.8,52454,9.69,72466.3,-3.29,-36.97,-37.69,0,*5A
1521961461.01,52455,9.69,72464.8,-3.27,-37.03,-37.57,0,*54
1521961462.27,52456,9.69,72466.3,-3.27,-37.21,-37.51,0,*51
1521961463.54,52457,9.69,72468.5,-3.29,-37.21,-37.75,0,*58
1521961464.77,52458,9.69,72466.8,-3.27,-37.21,-37.75,0,*59
1521961466.01,52459,9.75,72470.0,-3.27,-37.03,-37.39,0,*50
1521961467.24,52460,9.75,72468.0,-3.29,-36.97,-37.33,0,*52
1521961468.45,52461,9.75,72470.0,-3.27,-37.03,-37.57,0,*53
1521961469.71,52462,9.69,72464.8,-3.29,-37.03,-37.51,0,*58
1521961470.92,52463,9.69,72464.5,-3.27,-37.03,-37.75,0,*51
1521961472.12,52464,9.75,72468.0,-3.27,-37.33,-37.75,0,*55
1521961473.33,52465,9.69,72466.0,-3.27,-37.15,-37.57,0,*50
1521961474.56,52466,9.75,72468.0,-3.27,-36.79,-37.15,0,*5E
1521961475.77,52467,9.75,72468.3,-3.27,-36.85,-37.33,0,*58
1521961477.01,52468,9.75,72470.0,-3.27,-36.37,-36.67,0,*5E
1521961478.24,52469,9.75,72468.3,-3.27,-36.61,-37.03,0,*5F
1521961479.47,52470,9.69,72466.0,-3.27,-37.21,-37.75,0,*53
1521961480.73,52471,9.75,72470.5,-3.27,-37.21,-37.69,0,*5F
1521961481.97,52472,9.75,72468.0,-3.25,-36.97,-37.33,0,*5D
1521961483.22,52473,9.75,72468.8,-3.25,-36.91,-37.33,0,*5A
1521961484.46,52474,9.75,72468.5,-3.25,-36.97,-37.45,0,*5A
1521961485.71,52475,9.75,72466.5,-3.25,-36.91,-37.27,0,*59
1521961486.98,52476,9.69,72468.0,-3.25,-36.73,-37.09,0,*5A
1521961488.26,52477,9.75,72468.8,-3.25,-36.49,-36.91,0,*52
1521961489.52,52478,9.75,72470.8,-3.25,-36.73,-37.09,0,*54
1521961490.75,52479,9.69,72466.5,-3.23,-36.49,-36.85,0,*5F
1521961491.95,52480,9.75,72468.3,-3.23,-36.43,-36.85,0,*53
1521961493.19,52481,9.69,72462.0,-3.23,-36.73,-37.21,0,*5E
1521961494.42,52482,9.75,72466.3,-3.23,-37.03,-37.39,0,*52
1521961495.69,52483,9.75,72470.0,-3.23,-37.09,-37.63,0,*56
1521961496.89,52484,9.75,72468.0,-3.23,-37.45,-37.87,0,*53
1521961498.13,52485,9.75,72468.5,-3.23,-37.09,-37.57,0,*57
1521961499.34,52486,9.75,72468.3,-3.23,-36.67,-37.03,0,*5C
1521961500.54,52487,9.75,72470.5,-3.23,-36.73,-37.27,0,*5E
1521961501.81,52488,9.75,72464.8,-3.23,-37.21,-37.63,0,*57
1521961503.04,52489,9.75,72468.3,-3.25,-36.97,-37.27,0,*5C
1521961504.28,52490,9.75,72468.3,-3.23,-36.73,-37.21,0,*5E
1521961505.54,52491,9.75,72464.3,-3.23,-36.91,-37.39,0,*5A
1521961506.75,52492,9.75,72470.0,-3.23,-36.55,-37.03,0,*58
1521961507.98,52493,9.75,72468.8,-3.21,-36.43,-36.85,0,*53
1521961509.21,52494,9.75,72472.0,-3.19,-36.61,-36.97,0,*5C
1521961510.48,52495,9.75,72466.5,-3.21,-36.13,-36.55,0,*5D
1521961511.74,52496,9.75,72468.8,-3.21,-36.85,-37.09,0,*59
1521961512.98,52497,9.75,72468.3,-3.19,-37.39,-37.75,0,*5E
1521961514.23,52498,9.75,72464.5,-3.21,-37.63,-38.05,0,*5D
1521961515.47,52499,9.75,72468.0,-3.19,-37.63,-37.87,0,*52
1521961516.7,52500,9.75,72470.0,-3.19,-36.79,-37.33,0,*56
1521961517.97,52501,9.75,72468.3,-3.21,-37.27,-37.63,0,*53
1521961519.26,52502,9.75,72470.8,-3.21,-37.09,-37.63,0,*5C
1521961520.53,52503,9.75,72468.3,-3.21,-37.21,-37.57,0,*50
1521961521.74,52504,9.75,72466.5,-3.19,-36.85,-37.33,0,*51
1521961522.95,52505,9.75,72470.3,-3.19,-36.85,-37.33,0,*50
1521961524.21,52506,9.75,72466.8,-3.19,-36.79,-37.21,0,*53
1521961525.47,52507,9.75,72468.3,-3.19,-36.79,-37.21,0,*52
1521961526.7,52508,9.75,72470.5,-3.19,-36.61,-37.15,0,*53
1521961527.94,52509,9.75,72466.5,-3.19,-36.49,-36.97,0,*53
1521961529.2,52510,9.75,72470.3,-3.19,-36.25,-36.61,0,*58
1521961530.46,52511,9.75,72464.8,-3.17,-36.49,-37.03,0,*58
1521961531.72,52512,9.75,72464.0,-3.17,-36.85,-37.21,0,*5B
1521961532.98,52513,9.75,72466.5,-3.17,-37.03,-37.51,0,*52
1521961534.24,52514,9.75,72472.3,-3.17,-37.03,-37.69,0,*5E
1521961535.49,52515,9.75,72468.5,-3.13,-36.91,-37.45,0,*5F
1521961536.78,52516,9.75,72468.3,-3.17,-37.51,-37.81,0,*5D
1521961538.03,52517,9.75,72470.0,-3.17,-37.15,-37.69,0,*5A
1521961539.3,52518,9.75,72470.0,-3.17,-36.97,-37.51,0,*55
1521961540.51,52519,9.75,72470.3,-3.19,-36.85,-37.33,0,*5D
1521961541.74,52520,9.75,72468.5,-3.19,-36.61,-36.97,0,*52
1521961542.97,52521,9.75,72468.5,-3.17,-36.43,-36.97,0,*5D
1521961544.23,52522,9.75,72466.0,-3.13,-36.43,-36.79,0,*5A
1521961545.47,52523,9.75,72466.5,-3.13,-36.19,-36.55,0,*5A
1521961546.71,52524,9.75,72466.5,-3.13,-36.19,-36.55,0,*5D
1521961547.95,52525,9.75,72466.0,-3.13,-36.19,-36.55,0,*5C
1521961549.2,52526,9.75,72468.0,-3.13,-36.19,-36.79,0,*51
1521961550.46,52527,9.75,72470.8,-3.11,-37.09,-37.51,0,*59
1521961551.7,52528,9.75,72470.0,-3.09,-37.03,-37.57,0,*53
1521961552.93,52529,9.75,72470.5,-3.11,-36.91,-37.45,0,*52
1521961554.13,52530,9.75,72468.8,-3.11,-36.97,-37.45,0,*5C
1521961555.4,52531,9.75,72468.3,-3.11,-37.09,-37.63,0,*5F
1521961556.67,52532,9.75,72472.5,-3.09,-36.85,-37.21,0,*56
1521961557.9,52533,9.75,72474.5,-3.11,-36.55,-36.91,0,*59
1521961559.13,52534,9.75,72466.0,-3.11,-36.55,-36.79,0,*58
1521961560.4,52535,9.75,72468.0,-3.09,-36.37,-36.73,0,*5E
1521961561.66,52536,9.75,72470.3,-3.09,-36.73,-37.09,0,*51
1521961562.89,52537,9.75,72468.0,-3.11,-36.61,-36.97,0,*5C
1521961564.17,52538,9.75,72468.3,-3.09,-36.25,-36.55,0,*54
1521961565.4,52539,9.75,72470.0,-3.09,-36.67,-37.27,0,*57
1521961566.66,52540,9.75,72468.3,-3.09,-37.57,-37.69,0,*51
1521961567.89,52541,9.75,72468.8,-3.09,-37.45,-37.87,0,*53
1521961569.19,52542,9.75,72470.0,-3.09,-37.21,-37.63,0,*58
1521961570.46,52543,9.75,72466.5,-3.09,-36.73,-37.21,0,*59
1521961571.72,52544,9.75,72472.0,-3.09,-37.45,-37.81,0,*50
1521961572.96,52545,9.75,72468.5,-3.11,-37.15,-37.63,0,*51
1521961574.23,52546,9.75,72472.0,-3.09,-36.85,-37.21,0,*55
1521961575.51,52547,9.75,72470.0,-3.09,-37.39,-37.69,0,*5E
1521961576.72,52548,9.75,72470.3,-3.11,-37.33,-37.75,0,*5F
1521961577.92,52549,9.75,72470.0,-3.11,-36.85,-37.45,0,*51
1521961579.15,52550,9.75,72466.5,-3.11,-36.79,-37.27,0,*5E
1521961580.41,52551,9.75,72470.8,-3.09,-37.03,-37.39,0,*55
1521961581.65,52552,9.75,72468.8,-3.09,-36.85,-37.27,0,*56
1521961582.94,52553,9.75,72468.3,-3.09,-36.91,-37.39,0,*5D
1521961584.21,52554,9.75,72468.0,-3.09,-36.73,-37.09,0,*55
1521961585.47,52555,9.75,72468.3,-3.09,-36.73,-37.21,0,*5E
1521961586.74,52556,9.75,72470.0,-3.09,-36.85,-37.09,0,*5E
1521961587.97,52557,9.75,72470.3,-3.07,-36.67,-37.09,0,*5D
1521961589.21,52558,9.75,72468.3,-3.09,-36.67,-37.03,0,*56
1521961590.47,52559,9.75,72470.8,-3.09,-36.55,-36.91,0,*5C
1521961591.73,52560,9.75,72468.5,-3.07,-36.13,-36.49,0,*5F
1521961592.98,52561,9.75,72472.0,-3.05,-36.07,-36.61,0,*53
1521961594.22,52562,9.75,72468.5,-3.07,-36.37,-36.73,0,*52
1521961595.45,52563,9.75,72468.8,-3.07,-36.49,-36.85,0,*53
1521961596.71,52564,9.75,72472.8,-3.05,-36.49,-36.97,0,*55
1521961597.96,52565,9.75,72474.3,-3.05,-36.49,-36.97,0,*54
1521961599.24,52566,9.75,72470.5,-3.05,-36.25,-36.61,0,*54
1521961600.47,52567,9.75,72470.8,-3.05,-35.71,-36.19,0,*58
1521961601.74,52568,9.75,72468.5,-3.03,-35.95,-36.25,0,*54
1521961603.0,52569,9.75,72468.0,-3.01,-36.43,-36.79,0,*56
1521961604.24,52570,9.75,72468.8,-3.03,-36.61,-37.15,0,*57
1521961605.47,52571,9.75,72470.5,-3.03,-36.55,-36.91,0,*5C
1521961606.71,52572,9.75,72474.0,-3.03,-36.55,-36.91,0,*5F
1521961607.97,52573,9.75,72468.3,-3.01,-36.61,-36.97,0,*5D
1521961609.25,52574,9.75,72470.8,-3.01,-36.37,-36.79,0,*59
1521961610.49,52575,9.75,72474.8,-3.03,-36.43,-36.91,0,*5F
1521961611.75,52576,9.75,72470.3,-3.01,-36.19,-36.61,0,*5E
1521961612.98,52577,9.75,72474.0,-2.99,-36.07,-36.37,0,*53
1521961614.19,52578,9.75,72472.3,-2.99,-36.31,-36.67,0,*5C
1521961615.4,52579,9.75,72472.3,-2.99,-36.67,-37.27,0,*5B
1521961616.63,52580,9.75,72472.3,-2.99,-36.37,-36.85,0,*51
1521961617.85,52581,9.75,72472.8,-2.99,-36.31,-36.67,0,*5A
1521961619.06,52582,9.75,72472.3,-2.99,-36.73,-37.27,0,*5A
1521961620.27,52583,9.75,72468.5,-2.99,-36.85,-37.27,0,*52
1521961621.48,52584,9.75,72472.8,-2.99,-36.73,-37.27,0,*5C
1521961622.74,52585,9.75,72468.5,-2.99,-36.49,-36.91,0,*58
1521961623.97,52586,9.75,72472.0,-2.99,-36.67,-37.21,0,*5D
1521961625.21,52587,9.75,72470.3,-2.97,-36.73,-37.03,0,*57
1521961626.47,52588,9.75,72468.8,-2.97,-36.55,-37.21,0,*5C
1521961627.74,52589,9.75,72468.0,-2.99,-37.21,-37.51,0,*56
1521961629.0,52590,9.75,72474.5,-2.99,-36.91,-37.39,0,*5A
1521961630.24,52591,9.75,72472.3,-2.99,-36.73,-37.21,0,*5E
1521961631.48,52592,9.75,72468.5,-2.97,-36.55,-37.03,0,*57
1521961632.74,52593,9.75,72472.5,-2.99,-36.49,-36.91,0,*5F
1521961633.97,52594,9.75,72474.3,-2.97,-36.31,-36.73,0,*55
1521961635.24,52595,9.81,72472.0,-2.97,-36.73,-37.21,0,*54
1521961636.49,52596,9.75,72468.0,-2.97,-36.91,-37.27,0,*5D
1521961637.75,52597,9.75,72472.5,-2.99,-37.21,-37.69,0,*52
1521961638.99,52598,9.75,72470.3,-2.99,-37.27,-37.81,0,*5D
1521961640.22,52599,9.81,72476.8,-2.97,-36.85,-37.27,0,*57
1521961641.46,52600,9.81,72472.5,-2.99,-37.27,-37.63,0,*53
1521961642.7,52601,9.81,72474.3,-2.99,-37.03,-37.39,0,*5B
1521961643.94,52602,9.75,72474.5,-2.99,-37.03,-37.51,0,*56
1521961645.2,52603,9.81,72474.5,-2.97,-36.73,-37.21,0,*58
1521961646.41,52604,9.81,72472.0,-2.99,-36.55,-37.03,0,*55
1521961647.67,52605,9.81,72472.3,-2.97,-36.91,-37.45,0,*50
1521961648.91,52606,9.75,72468.5,-2.99,-36.85,-37.39,0,*53
1521961650.19,52607,9.75,72470.3,-2.97,-36.37,-36.91,0,*56
1521961651.43,52608,9.81,72472.5,-2.97,-36.55,-37.03,0,*57
1521961652.68,52609,9.81,72472.5,-2.97,-36.55,-36.91,0,*5C
1521961653.97,52610,9.75,72472.0,-2.97,-36.49,-36.91,0,*59
1521961655.22,52611,9.81,72474.0,-2.97,-36.91,-37.45,0,*55
1521961656.48,52612,9.75,72470.8,-2.97,-37.03,-37.39,0,*57
1521961657.71,52613,9.75,72470.0,-2.97,-36.85,-37.27,0,*56
1521961659.0,52614,9.75,72470.3,-2.97,-36.91,-37.39,0,*5B
1521961660.26,52615,9.75,72468.5,-2.97,-36.67,-37.09,0,*50
1521961661.52,52616,9.75,72472.5,-2.97,-37.09,-37.45,0,*52
1521961662.81,52617,9.81,72474.0,-2.97,-37.21,-37.63,0,*5D
1521961664.04,52618,9.75,72470.0,-2.97,-37.03,-37.45,0,*56
1521961665.27,52619,9.81,72474.0,-2.95,-36.79,-37.15,0,*5C
1521961666.53,52620,9.81,72472.5,-2.97,-36.67,-37.09,0,*56
1521961667.8,52621,9.75,72468.0,-2.95,-36.25,-36.49,0,*56
1521961669.03,52622,9.81,72468.0,-2.95,-36.31,-36.61,0,*5A
1521961670.25,52623,9.81,72472.0,-2.91,-36.01,-36.43,0,*5C
1521961671.5,52624,9.81,72470.3,-2.95,-36.49,-36.79,0,*5A
1521961672.74,52625,9.81,72470.5,-2.91,-36.67,-37.21,0,*5F
1521961673.99,52626,9.81,72474.0,-2.91,-37.15,-37.63,0,*5E
1521961675.25,52627,9.81,72470.8,-2.95,-37.63,-38.11,0,*50
1521961676.48,52628,9.81,72470.8,-2.95,-37.33,-37.93,0,*5F
1521961677.72,52629,9.81,72472.0,-2.95,-37.33,-37.63,0,*51
1521961678.93,52630,9.81,72468.3,-2.95,-36.85,-37.33,0,*50
1521961680.17,52631,9.81,72474.0,-2.91,-36.61,-37.15,0,*5B
1521961681.41,52632,9.81,72470.0,-2.95,-36.85,-37.21,0,*51
1521961682.62,52633,9.81,72472.5,-2.95,-37.33,-37.57,0,*5D
1521961683.86,52634,9.75,72470.3,-2.95,-36.97,-37.39,0,*5D
1521961685.1,52635,9.81,72474.3,-2.95,-37.21,-37.75,0,*58
1521961686.36,52636,9.81,72474.5,-2.97,-37.09,-37.45,0,*50
1521961687.59,52637,9.81,72468.5,-2.97,-36.55,-37.03,0,*5B
1521961688.83,52638,9.81,72472.5,-2.95,-36.49,-37.03,0,*5B
1521961690.07,52639,9.81,72470.3,-2.95,-37.33,-37.63,0,*50
1521961691.27,52640,9.81,72474.8,-2.95,-37.03,-37.45,0,*59
1521961692.48,52641,9.81,72472.5,-2.95,-37.03,-37.57,0,*5B
1521961693.69,52642,9.81,72474.3,-2.95,-37.03,-37.57,0,*58
1521961694.9,52643,9.81,72470.8,-2.95,-36.85,-37.33,0,*54
1521961696.14,52644,9.81,72474.0,-2.95,-36.85,-37.39,0,*59
1521961697.37,52645,9.81,72472.5,-2.97,-37.03,-37.45,0,*5E
1521961698.58,52646,9.81,72474.3,-2.95,-37.03,-37.45,0,*5F
1521961699.81,52647,9.81,72474.0,-2.95,-36.79,-37.15,0,*57
1521961701.02,52648,9.81,72474.8,-2.95,-37.03,-37.33,0,*50
1521961702.26,52649,9.81,72472.3,-2.95,-36.85,-37.39,0,*54
1521961703.5,52650,9.81,72472.3,-2.95,-36.61,-37.15,0,*58
1521961704.71,52651,9.81,72470.8,-2.95,-36.67,-37.15,0,*5F
1521961705.95,52652,9.75,72468.8,-2.95,-36.67,-37.21,0,*5B